Wind_Speed
4 4 5 5 5 5 5 5 5 5 5 5 5 5 4 4 3 4 4 5 6 7 9 11 10 10 10 11 12 14 15 16 16 14 13 11 9 7 5 3 3 2 2 2 2 2 4 5 8
4 4 5 5 4 4 4 4 4 4 5 5 5 5 5 4 3 3 5 5 5 6 7 9 9 9 9 9 10 12 14 15 16 15 13 12 10 8 5 3 2 2 1 1 2 2 4 6 8
4 5 6 5 4 4 3 4 4 4 4 4 5 5 5 5 4 2 4 6 6 5 6 7 8 8 7 8 8 10 11 13 14 14 14 13 12 11 8 4 2 2 1 2 2 3 4 6 8
4 5 5 5 5 4 4 3 3 4 4 3 4 4 5 5 4 3 3 5 6 5 5 5 6 6 6 6 6 7 8 10 11 13 13 13 13 12 10 7 4 2 1 1 2 3 3 4 8
4 4 4 4 5 4 4 3 3 3 4 4 4 5 5 5 5 4 3 3 5 6 5 4 4 5 5 5 5 5 6 7 8 11 12 12 12 12 12 10 7 3 1 1 2 3 3 2 6
4 4 4 4 5 4 4 4 4 4 4 5 5 5 5 6 5 5 4 3 4 6 5 4 3 3 3 4 4 4 4 5 6 8 9 10 10 11 11 11 9 6 4 2 2 2 2 1 5
4 4 5 5 4 4 3 3 3 4 5 5 6 6 6 5 6 6 5 4 3 5 6 6 4 3 1 1 2 3 4 5 5 6 6 7 8 9 10 10 10 8 6 5 3 2 2 1 3
5 5 4 4 3 2 1 1 2 3 4 4 5 5 5 5 6 6 5 4 3 3 5 6 7 5 4 3 2 1 3 4 5 6 5 5 6 6 8 9 9 9 8 7 6 4 2 1 2
8 7 6 5 4 3 2 2 2 3 3 3 3 3 4 4 4 5 5 4 2 1 3 6 8 8 7 6 6 5 4 4 5 6 6 5 5 5 5 6 7 8 7 8 7 5 2 0 2
11 10 9 8 7 6 5 5 5 5 5 5 4 4 4 3 3 2 3 3 2 0 2 5 7 9 10 10 10 9 7 6 6 7 7 6 5 4 4 4 5 6 6 6 6 5 3 0 2
14 13 12 11 11 10 10 9 8 8 8 8 8 7 7 7 6 4 3 2 2 2 3 4 6 8 10 11 12 11 10 9 8 9 9 8 7 6 4 4 4 4 4 4 5 4 2 0 2
16 16 15 14 14 14 14 13 12 11 12 12 12 11 11 11 10 9 7 6 5 5 5 6 7 8 9 10 11 12 12 12 11 11 11 10 10 9 7 6 5 4 3 3 3 3 2 1 3
18 17 17 17 17 17 17 17 16 15 15 15 15 15 15 15 14 13 12 10 10 9 9 9 10 10 11 11 11 12 13 14 14 14 13 13 12 11 10 10 8 7 6 5 4 3 2 2 3
19 20 20 21 21 21 21 21 21 20 19 19 19 19 19 19 18 17 16 15 14 13 13 12 12 13 13 14 13 13 14 15 15 16 16 15 15 14 13 12 12 11 9 8 7 6 5 5 5
22 23 24 24 25 25 25 26 26 25 24 23 23 22 22 22 22 22 21 19 19 18 16 16 15 15 16 16 16 16 16 16 16 17 18 18 17 16 15 15 14 14 13 11 10 10 9 8 8
26 26 28 28 29 29 30 32 31 30 29 28 27 26 26 26 26 26 25 24 23 22 21 20 19 19 18 18 18 19 18 17 18 18 19 20 19 18 18 17 17 17 16 15 15 14 13 12 12
29 30 32 33 33 33 34 36 36 34 33 32 31 31 30 29 29 29 29 28 27 27 25 24 23 22 22 21 20 21 21 19 19 20 21 22 21 20 20 19 20 19 19 19 18 17 16 16 16
33 34 35 37 38 37 38 40 40 39 38 37 36 35 34 34 33 33 32 31 31 30 28 28 27 26 25 24 23 23 23 22 22 22 23 23 23 23 22 21 22 22 22 21 20 19 19 19 20
36 37 38 40 41 41 42 43 43 43 42 41 40 39 38 37 37 36 36 36 35 33 32 31 30 30 29 28 28 27 25 25 25 25 26 26 26 25 24 24 23 23 23 22 22 22 22 22 23
37 38 40 42 42 42 43 44 44 43 43 42 41 40 39 39 39 38 38 39 38 38 37 35 34 34 33 32 32 31 29 28 28 29 29 29 29 28 26 25 24 23 23 23 23 24 24 25 26
39 40 41 42 42 42 42 43 42 41 41 40 39 37 37 36 37 37 38 39 40 40 40 40 38 37 36 36 36 35 33 33 32 32 33 32 31 30 28 27 26 25 25 25 25 25 26 27 28
42 43 43 43 43 41 41 40 41 38 37 36 35 34 33 32 33 35 36 38 39 41 42 42 41 40 40 40 40 39 38 38 37 36 35 34 33 31 30 28 27 25 25 25 25 26 26 27 27
44 45 45 45 44 43 41 40 40 37 35 35 34 33 33 33 33 33 35 37 39 41 42 44 44 44 42 42 42 42 42 42 40 38 36 34 33 32 31 30 27 25 25 26 26 26 26 27 28
41 42 43 43 42 43 40 38 39 38 36 35 35 35 35 34 34 34 35 37 38 40 42 44 44 45 44 44 44 44 44 44 43 41 38 35 34 33 32 29 27 25 25 26 26 26 26 27 27
35 35 35 34 34 35 36 36 39 38 36 35 35 35 35 35 35 36 37 37 38 39 41 42 43 44 44 44 45 46 45 46 47 44 40 36 34 32 30 27 25 24 24 25 26 27 27 27 27
26 24 23 23 22 24 26 29 31 31 32 33 33 33 33 33 34 35 35 35 35 36 37 39 41 42 42 42 43 45 47 47 46 44 41 36 33 30 26 24 22 23 24 25 27 27 27 27 27
20 16 13 12 14 17 18 21 23 23 24 25 25 26 26 27 27 28 29 30 30 30 32 35 37 38 39 40 42 42 42 43 45 43 37 34 30 25 22 21 21 23 24 26 27 27 27 27 26
20 15 10 5 2 5 9 12 12 13 14 15 15 15 16 17 18 19 20 22 22 23 25 28 31 33 34 35 37 38 40 39 37 34 29 26 22 18 17 18 21 22 23 24 25 25 24 24 24
21 16 13 9 5 3 2 2 3 4 5 7 7 8 8 8 10 10 11 13 15 17 19 21 23 25 27 28 29 30 30 27 24 20 17 15 14 15 17 19 20 21 21 22 22 22 21 21 21
22 20 17 13 9 7 5 4 3 2 3 3 4 5 5 4 4 4 4 5 7 9 10 9 11 12 12 13 14 13 12 12 11 10 9 10 10 13 16 18 20 20 20 20 19 19 19 19 20
Wind_Direction
102 92 89 86 76 70 66 62 61 62 66 66 63 61 62 67 95 131 140 135 113 93 83 81 85 90 88 78 68 59 54 53 52 53 56 59 61 65 77 90 100 113 131 152 179 208 215 215 210
112 102 97 88 69 63 59 56 57 59 69 71 73 69 61 61 80 126 151 158 141 112 91 83 83 89 92 85 74 64 57 54 53 54 56 58 60 62 68 83 108 129 149 188 215 234 239 231 219
116 102 97 87 76 73 65 54 41 49 62 71 75 70 61 57 65 112 157 173 164 139 107 88 83 86 93 92 82 70 60 54 52 54 57 58 59 60 60 68 99 140 173 212 241 253 252 236 220
119 106 99 89 79 81 73 51 38 47 51 64 78 74 63 54 61 85 141 174 174 162 134 101 89 85 90 94 89 75 62 54 52 54 56 57 58 59 58 59 70 103 161 231 258 272 273 244 216
131 112 103 100 91 85 73 53 42 40 45 57 66 72 67 62 62 73 100 158 177 176 163 130 102 89 85 87 84 72 59 51 48 50 52 55 58 59 60 59 58 63 55 309 293 293 298 259 207
152 127 106 118 110 100 78 59 50 48 45 51 55 60 61 63 62 72 85 122 168 184 184 170 142 113 89 80 69 56 45 37 34 37 43 51 56 59 61 60 56 50 38 13 337 312 313 283 200
178 155 130 127 128 121 97 69 49 43 44 49 50 49 54 59 62 70 78 99 147 183 197 197 188 178 154 95 65 41 28 19 12 15 26 39 48 54 58 60 57 48 35 21 5 348 331 320 188
210 198 183 170 165 168 148 56 24 16 24 35 41 41 46 52 58 63 67 79 116 172 203 212 212 214 222 232 253 326 348 354 358 358 3 16 30 40 48 53 53 48 38 24 16 12 5 358 186
231 230 227 222 219 219 227 276 303 318 336 349 3 8 16 28 41 51 55 61 80 152 214 226 229 231 237 247 254 267 288 311 328 337 342 348 358 12 24 36 42 42 38 30 26 24 21 14 201
237 240 243 244 244 243 249 261 275 286 297 300 301 302 305 317 341 13 35 46 49 5 244 241 241 243 246 252 257 262 268 279 294 305 314 321 325 333 352 5 18 28 30 30 30 33 35 284 218
238 242 245 248 251 253 256 258 261 266 272 275 277 275 272 272 276 282 296 315 318 292 271 260 252 250 250 252 256 259 262 267 275 283 289 294 297 298 306 329 345 359 10 18 23 26 32 255 233
238 241 244 246 249 253 256 255 255 256 261 264 266 267 266 265 265 265 266 272 275 276 272 267 261 255 250 250 253 256 259 262 266 270 274 277 278 278 277 285 301 309 316 333 352 0 354 286 246
241 244 245 247 250 253 256 256 256 255 257 259 263 265 266 266 266 264 262 263 265 267 268 269 267 263 258 254 253 254 258 259 261 263 265 265 265 265 266 269 275 280 284 289 295 302 311 303 279
245 246 248 249 251 253 254 255 255 255 258 260 263 266 268 269 269 268 266 264 263 263 263 265 266 267 265 262 259 256 257 258 261 261 260 259 257 256 258 262 267 270 273 278 281 281 281 279 279
248 249 250 251 252 253 254 256 256 257 259 262 264 266 268 270 270 271 270 269 269 268 266 264 266 267 267 267 264 260 257 258 259 259 256 254 252 252 254 257 262 265 269 270 274 278 280 278 276
252 252 253 253 253 254 256 258 257 259 261 262 263 265 267 269 270 271 272 272 272 273 272 270 270 270 269 268 268 265 260 258 257 255 254 252 250 250 252 256 259 261 264 266 269 274 278 279 279
258 258 258 258 257 258 258 260 261 261 262 263 262 263 264 266 267 269 271 272 273 274 275 274 272 271 271 271 269 267 263 259 257 254 252 250 250 250 252 256 258 259 262 264 267 270 275 277 279
263 263 263 263 262 262 262 263 263 263 263 263 263 262 262 262 263 265 266 268 270 271 273 274 274 272 270 271 271 269 265 261 259 256 252 250 251 252 254 256 257 259 260 262 264 268 273 275 278
268 267 266 265 264 264 264 264 264 265 264 264 263 263 262 261 261 261 262 264 266 267 269 271 272 272 271 272 271 270 268 265 262 258 254 252 251 253 254 255 257 259 260 262 263 268 272 274 276
271 269 268 267 266 266 265 265 265 266 266 266 266 265 264 263 262 261 260 261 262 264 266 267 268 269 271 271 271 271 270 266 262 259 255 252 251 253 254 255 257 258 259 261 264 268 273 275 277
275 272 271 270 269 268 268 267 266 266 267 267 267 266 265 265 264 264 262 261 261 261 262 262 263 263 266 269 271 272 271 268 264 260 258 254 251 251 253 254 256 258 260 262 265 270 273 276 278
279 276 273 272 270 269 268 268 267 266 267 267 267 267 267 266 266 265 264 263 261 259 259 259 259 260 262 265 267 269 269 267 264 262 261 257 250 248 250 253 255 259 261 265 268 272 275 276 278
281 277 274 271 269 267 267 267 268 266 266 267 268 269 270 271 270 269 268 265 262 258 256 255 255 257 260 263 264 265 265 264 262 261 260 259 253 248 250 251 254 258 263 267 271 273 275 276 277
285 280 274 269 266 264 264 265 265 265 266 268 270 272 273 274 273 272 271 268 264 259 255 252 253 254 256 259 260 261 262 260 261 261 260 259 255 250 248 249 253 259 264 269 272 273 274 275 276
294 287 281 273 267 263 261 259 261 265 266 267 269 271 273 274 275 274 273 270 265 259 254 251 251 252 254 256 258 260 259 259 261 259 259 256 251 246 246 249 254 260 265 269 272 273 275 275 276
310 299 285 272 262 258 256 253 257 261 262 263 265 268 271 272 273 274 272 268 264 259 254 250 250 252 254 256 259 262 262 262 260 258 258 252 247 244 245 248 252 258 264 269 272 273 275 275 275
339 326 309 283 260 249 247 249 253 256 259 259 260 264 266 269 270 270 269 266 263 259 255 252 251 254 256 258 260 263 266 266 263 258 252 245 240 239 241 246 255 262 268 271 272 273 274 274 274
3 4 1 344 270 237 239 245 252 253 255 253 254 257 261 262 263 265 264 262 261 259 257 255 254 257 259 260 261 263 263 262 258 251 244 237 230 231 242 254 261 265 268 270 271 272 273 273 272
20 27 33 44 69 130 165 219 246 241 233 229 229 236 242 247 250 255 259 258 257 255 254 254 254 255 256 257 260 259 255 250 241 230 225 228 230 240 251 258 263 265 267 269 271 272 272 272 270
30 38 47 54 63 72 75 69 95 139 160 168 173 169 170 169 180 199 217 233 239 238 239 243 243 244 244 245 244 237 223 216 215 214 222 230 243 254 259 262 265 266 269 272 273 274 273 272 270
Height
5912 5913 5913 5915 5916 5916 5916 5917 5917 5916 5916 5915 5914 5913 5912 5912 5912 5915 5912 5910 5910 5910 5910 5910 5910 5910 5910 5910 5910 5909 5908 5907 5905 5903 5902 5900 5899 5898 5897 5896 5896 5896 5895 5895 5895 5895 5895 5896 5897
5912 5913 5915 5915 5916 5916 5917 5917 5917 5917 5916 5915 5914 5913 5912 5911 5911 5910 5910 5910 5910 5910 5910 5910 5910 5910 5910 5911 5911 5910 5909 5908 5907 5905 5903 5901 5900 5898 5897 5897 5896 5896 5895 5895 5895 5895 5895 5895 5895
5913 5913 5915 5916 5916 5916 5917 5917 5917 5917 5916 5915 5914 5913 5912 5911 5910 5909 5909 5909 5910 5910 5911 5911 5911 5911 5911 5911 5911 5911 5911 5910 5908 5907 5905 5903 5901 5899 5898 5897 5896 5896 5895 5895 5894 5894 5894 5894 5894
5913 5915 5916 5916 5916 5916 5917 5917 5916 5916 5916 5915 5914 5913 5912 5911 5910 5909 5908 5909 5909 5910 5911 5911 5911 5912 5912 5912 5912 5912 5912 5911 5910 5908 5907 5905 5902 5900 5899 5898 5897 5896 5896 5895 5894 5894 5893 5893 5893
5913 5914 5916 5916 5916 5916 5916 5916 5916 5916 5916 5915 5914 5913 5912 5911 5909 5908 5908 5908 5909 5909 5910 5911 5912 5912 5912 5912 5912 5912 5912 5912 5911 5909 5908 5906 5904 5902 5900 5899 5898 5897 5896 5895 5894 5893 5893 5892 5892
5914 5914 5916 5916 5916 5916 5916 5916 5916 5916 5916 5915 5914 5913 5911 5910 5909 5908 5908 5908 5908 5909 5910 5911 5911 5912 5912 5913 5913 5913 5912 5912 5911 5910 5909 5907 5905 5904 5902 5900 5899 5897 5896 5895 5894 5893 5893 5892 5892
5914 5915 5915 5915 5916 5916 5916 5915 5915 5915 5915 5915 5914 5913 5911 5910 5909 5908 5908 5907 5908 5908 5909 5910 5911 5911 5911 5912 5912 5912 5912 5911 5911 5910 5909 5908 5906 5905 5903 5901 5900 5898 5896 5895 5894 5893 5893 5893 5893
5912 5914 5914 5914 5915 5915 5915 5914 5914 5915 5914 5914 5913 5913 5912 5911 5909 5908 5908 5907 5907 5908 5908 5909 5910 5910 5910 5910 5911 5911 5911 5911 5910 5909 5909 5907 5906 5905 5904 5902 5900 5899 5897 5895 5894 5893 5893 5893 5894
5911 5914 5913 5914 5914 5914 5914 5914 5914 5913 5913 5913 5912 5912 5911 5910 5909 5909 5908 5907 5907 5907 5907 5908 5908 5909 5909 5909 5909 5909 5909 5909 5908 5908 5907 5907 5906 5905 5904 5903 5901 5900 5898 5896 5895 5894 5894 5894 5894
5909 5910 5911 5912 5912 5912 5912 5912 5912 5912 5911 5911 5911 5911 5910 5909 5909 5908 5908 5907 5907 5906 5906 5907 5907 5907 5907 5907 5907 5907 5907 5907 5907 5906 5906 5905 5905 5904 5903 5902 5901 5900 5898 5896 5895 5894 5894 5894 5894
5906 5907 5908 5908 5909 5909 5910 5910 5910 5910 5909 5909 5909 5908 5908 5908 5907 5907 5907 5906 5906 5905 5905 5905 5905 5905 5905 5905 5905 5905 5905 5905 5904 5904 5904 5903 5903 5902 5901 5901 5900 5899 5898 5896 5895 5894 5893 5893 5893
5903 5903 5904 5905 5905 5906 5906 5906 5907 5906 5906 5906 5905 5905 5905 5905 5905 5905 5905 5904 5904 5903 5903 5903 5903 5902 5902 5902 5902 5902 5902 5902 5902 5901 5901 5901 5900 5900 5899 5899 5898 5898 5897 5896 5895 5894 5893 5892 5892
5899 5900 5900 5901 5901 5901 5901 5902 5902 5902 5902 5902 5902 5902 5902 5902 5902 5902 5902 5902 5901 5901 5901 5901 5900 5900 5900 5899 5899 5899 5899 5898 5898 5898 5898 5897 5897 5897 5897 5896 5896 5896 5895 5894 5893 5893 5892 5891 5890
5895 5895 5895 5896 5896 5897 5897 5896 5896 5897 5897 5898 5898 5897 5897 5897 5898 5898 5898 5898 5898 5898 5898 5897 5897 5897 5896 5896 5895 5895 5895 5894 5894 5894 5894 5894 5893 5893 5893 5893 5893 5893 5892 5892 5892 5891 5890 5889 5889
5890 5891 5891 5891 5891 5891 5891 5890 5890 5891 5891 5892 5892 5892 5892 5892 5893 5893 5893 5893 5893 5893 5894 5894 5893 5892 5892 5891 5891 5890 5890 5890 5890 5890 5890 5889 5889 5890 5890 5890 5889 5889 5889 5889 5889 5888 5888 5887 5886
5885 5886 5885 5885 5884 5885 5886 5883 5884 5884 5885 5886 5887 5887 5887 5887 5887 5887 5888 5888 5888 5889 5889 5889 5888 5888 5887 5886 5886 5885 5885 5885 5885 5885 5885 5885 5885 5885 5885 5885 5885 5885 5885 5885 5885 5885 5885 5884 5884
5879 5879 5879 5878 5877 5877 5878 5875 5876 5877 5878 5878 5879 5880 5881 5881 5881 5881 5881 5882 5883 5883 5883 5883 5883 5882 5882 5881 5881 5880 5880 5880 5880 5880 5880 5880 5880 5881 5881 5881 5881 5881 5881 5881 5881 5881 5881 5881 5880
5873 5872 5871 5870 5869 5869 5868 5867 5866 5868 5869 5870 5871 5872 5873 5874 5874 5874 5875 5875 5875 5876 5876 5877 5876 5876 5876 5875 5875 5874 5874 5874 5874 5874 5874 5875 5875 5876 5876 5877 5876 5876 5876 5877 5877 5877 5877 5876 5876
5865 5864 5862 5860 5859 5860 5858 5857 5857 5858 5859 5860 5861 5863 5864 5865 5866 5867 5867 5868 5868 5868 5869 5870 5870 5869 5869 5869 5868 5868 5868 5869 5868 5869 5869 5869 5870 5870 5871 5871 5871 5871 5871 5872 5872 5872 5872 5871 5871
5856 5854 5852 5850 5849 5849 5848 5847 5847 5848 5849 5850 5851 5853 5854 5855 5857 5858 5859 5860 5860 5861 5861 5862 5862 5862 5862 5862 5861 5861 5861 5862 5862 5862 5862 5862 5863 5864 5865 5865 5865 5865 5866 5866 5866 5867 5866 5866 5865
5845 5843 5841 5840 5839 5838 5838 5838 5837 5838 5838 5840 5841 5842 5844 5846 5847 5849 5850 5851 5852 5853 5853 5854 5854 5855 5855 5854 5854 5854 5854 5854 5854 5854 5855 5855 5856 5858 5858 5859 5860 5860 5860 5861 5861 5861 5861 5860 5859
5834 5832 5830 5828 5828 5827 5828 5828 5827 5828 5829 5830 5831 5833 5835 5837 5838 5839 5840 5841 5842 5843 5844 5844 5845 5846 5847 5847 5847 5846 5846 5846 5846 5846 5847 5848 5849 5850 5851 5852 5853 5854 5855 5855 5855 5855 5854 5854 5852
5822 5819 5817 5815 5814 5815 5816 5817 5818 5819 5820 5821 5822 5824 5826 5827 5829 5830 5831 5831 5832 5833 5834 5835 5836 5837 5838 5838 5838 5838 5837 5837 5837 5838 5839 5841 5843 5844 5845 5846 5847 5847 5848 5848 5848 5848 5848 5847 5846
5807 5804 5801 5800 5800 5802 5805 5807 5806 5809 5811 5812 5813 5815 5817 5818 5819 5820 5821 5821 5821 5822 5823 5825 5826 5828 5829 5830 5830 5830 5829 5828 5829 5830 5832 5833 5835 5837 5838 5839 5840 5841 5842 5842 5842 5842 5841 5840 5839
5794 5790 5788 5787 5788 5791 5793 5795 5794 5798 5801 5802 5804 5806 5807 5809 5810 5810 5811 5811 5811 5812 5813 5815 5817 5818 5820 5821 5822 5821 5821 5821 5821 5822 5823 5825 5827 5828 5830 5832 5833 5835 5835 5835 5835 5835 5834 5833 5832
5785 5780 5778 5778 5779 5780 5781 5783 5785 5788 5790 5792 5794 5796 5798 5800 5800 5801 5801 5801 5801 5802 5803 5805 5807 5809 5811 5813 5814 5814 5813 5813 5814 5814 5815 5816 5818 5820 5822 5825 5826 5828 5828 5828 5828 5827 5826 5825 5824
5780 5774 5771 5770 5770 5772 5775 5776 5778 5780 5782 5784 5786 5788 5789 5791 5792 5792 5792 5792 5793 5794 5795 5797 5799 5801 5803 5804 5805 5806 5805 5806 5806 5806 5807 5808 5810 5812 5815 5818 5820 5821 5821 5821 5821 5820 5819 5818 5817
5780 5773 5769 5767 5767 5769 5771 5772 5774 5775 5776 5778 5780 5781 5783 5784 5784 5785 5785 5785 5786 5787 5788 5790 5791 5793 5795 5796 5796 5797 5797 5798 5798 5798 5799 5801 5803 5806 5810 5812 5813 5814 5814 5814 5813 5812 5812 5811 5810
5782 5776 5771 5769 5768 5769 5770 5774 5772 5773 5774 5775 5776 5777 5778 5779 5780 5780 5780 5780 5781 5781 5783 5783 5784 5786 5787 5788 5789 5790 5790 5791 5792 5793 5795 5797 5799 5802 5805 5806 5807 5807 5807 5807 5806 5806 5805 5804 5803
5785 5779 5775 5773 5771 5771 5771 5775 5772 5772 5772 5773 5774 5775 5775 5776 5776 5776 5777 5777 5777 5778 5779 5779 5779 5780 5782 5783 5784 5785 5785 5787 5788 5790 5793 5795 5796 5798 5800 5801 5801 5801 5801 5800 5800 5799 5798 5798 5797